This is the latest recevied weather packets stored in our database for station/object SR9SMR. If no packets are shown the sender has not sent any weather packets the latest 1 day(s).
| Time | Temp. | Humidity | Pressure | Rain* | Wind** | Luminosity | Snow |
|---|---|---|---|---|---|---|---|
| 1778019378 | 12.78° C | 100% | 894.2 hPa | - | 8.05 m/s, 210° | - | - |
| 1778019258 | 12.78° C | 100% | 891.3 hPa | - | 7.6 m/s, 210° | - | - |
| 1778019139 | 12.78° C | 100% | 892.7 hPa | - | 8.49 m/s, 207° | - | - |
| 1778019136 | 12.78° C | 100% | 895.5 hPa | - | 8.49 m/s, 207° | - | - |
| 1778019076 | 12.78° C | 100% | 895.5 hPa | - | 8.49 m/s, 207° | - | - |
| 1778018913 | 12.78° C | 100% | 896.7 hPa | - | 8.05 m/s, 202° | - | - |
| 1778018789 | 12.78° C | 100% | 892.9 hPa | - | 7.15 m/s, 201° | - | - |
| 1778018665 | 12.78° C | 100% | 891.9 hPa | - | 7.15 m/s, 199° | - | - |
| 1778018604 | 12.78° C | 100% | 892.9 hPa | - | 7.15 m/s, 196° | - | - |
| 1778018541 | 12.78° C | 100% | 891.5 hPa | - | 8.49 m/s, 199° | - | - |
| 1778018420 | 13.33° C | 100% | 893.5 hPa | - | 8.49 m/s, 207° | - | - |
| 1778018299 | 13.33° C | 100% | 891.5 hPa | - | 8.49 m/s, 208° | - | - |
| 1778018178 | 13.33° C | 100% | 893.5 hPa | - | 8.94 m/s, 203° | - | - |
| 1778018058 | 13.33° C | 100% | 893.1 hPa | - | 9.39 m/s, 203° | - | - |
| 1778017998 | 13.33° C | 100% | 893.9 hPa | - | 8.49 m/s, 205° | - | - |
| 1778017938 | 13.33° C | 100% | 893.9 hPa | - | 8.05 m/s, 208° | - | - |
| 1778017816 | 13.33° C | 100% | 895.2 hPa | - | 8.49 m/s, 206° | - | - |
| 1778017696 | 13.33° C | 100% | 893.6 hPa | - | 9.83 m/s, 200° | - | - |
| 1778017574 | 13.33° C | 100% | 892.2 hPa | - | 9.83 m/s, 203° | - | - |
| 1778017454 | 13.33° C | 100% | 892 hPa | - | 11.18 m/s, 205° | - | - |
| 1778017394 | 13.33° C | 100% | 894.8 hPa | - | 10.73 m/s, 202° | - | - |
| 1778017332 | 13.33° C | 100% | 891.5 hPa | - | 9.39 m/s, 201° | - | - |
| 1778017212 | 13.33° C | 100% | 893.2 hPa | - | 8.05 m/s, 200° | - | - |
| 1778017091 | 13.33° C | 100% | 896.6 hPa | - | 8.49 m/s, 198° | - | - |
| 1778016970 | 13.33° C | 100% | 892.1 hPa | - | 8.94 m/s, 201° | - | - |
* Rain since midnight (hover to see other rain measurements)
** Current wind speed in m/s (hover to see current wind gust speed)